Weather History for China Lake, CA

Change the Weather History Date:

Monday, December 5, 2011

  Actual Average Record
Temperature  
Mean Temperature 40 °F -  
Max Temperature 55 °F 57 °F 70 °F (1996)
Min Temperature 26 °F 34 °F 19 °F (2005)
Degree Days  
Heating Degree Days 24    
Moisture  
Dew Point 5 °F    
Average Humidity 24    
Maximum Humidity 41    
Minimum Humidity 12    
Precipitation  
Precipitation 0.00 in - - ()
Sea Level Pressure  
Sea Level Pressure 30.29 in    
Wind  
Wind Speed 8 mph (NW)    
Max Wind Speed 20 mph    
Max Gust Speed 26 mph    
Visibility 10 miles    
Events      
Averages and records for this station are not official NWS values.
T = Trace of Precipitation, MM = Missing Value Source: NWS Daily Summary

Daily Weather History Graph

Daily Weather History Graph

Search for Another Location

Airport:

Trip Planner

Search our weather history database for the weather conditions in past years. The results will help you decide how hot, cold, wet, or windy it might be!

Date:

Astronomy

Dec. 05, 2011 Rise Set
Actual Time 6:45 AM PST 4:37 PM PST
Civil Twilight 6:17 AM PST 5:05 PM PST
Nautical Twilight 5:45 AM PST 5:37 PM PST
Astronomical Twilight 5:14 AM PST 6:07 PM PST
Moon 1:31 PM PST (12/5) 2:17 AM PST (12/5)
Length of Visible Light 10h 48m
Length of Day
9h 51m
Waxing Gibbous, 80% of the Moon is Illuminated
Dec 5
Waxing Gibbous
Dec 10
Full
Dec 17
Last Quarter
Dec 24
New
Dec 31
First Quarter

Hourly Weather History & Observations

Time (PST) Temp. Windchill Dew Point Humidity Pressure Visibility Wind Dir Wind Speed Gust Speed Precip Events Conditions
12:56 AM 28.9 °F 25.2 °F 6.1 °F 38% 30.21 in 10.0 mi Variable 3.5 mph - N/A   Clear
1:56 AM 26.1 °F 21.9 °F 5.0 °F 41% 30.23 in 10.0 mi WSW 3.5 mph - N/A   Clear
2:56 AM 39.0 °F 32.3 °F 10.0 °F 30% 30.23 in 10.0 mi NNE 10.4 mph - N/A   Clear
3:56 AM 41.0 °F 33.5 °F 12.0 °F 31% 30.23 in 10.0 mi North 13.8 mph - N/A   Clear
5:56 AM 42.1 °F 33.9 °F 10.0 °F 27% 30.27 in 10.0 mi NNW 17.3 mph - N/A   Clear
6:56 AM 39.0 °F 31.8 °F 9.0 °F 29% 30.30 in 10.0 mi North 11.5 mph - N/A   Partly Cloudy
7:56 AM 45.0 °F 37.1 °F 9.0 °F 23% 30.31 in 10.0 mi NNW 19.6 mph 26.5 mph N/A   Partly Cloudy
8:56 AM 48.0 °F - 9.0 °F 21% 30.32 in 10.0 mi NW 11.5 mph 20.7 mph N/A   Partly Cloudy
9:56 AM 51.1 °F - 6.1 °F 16% 30.33 in 10.0 mi North 6.9 mph - N/A   Clear
10:56 AM 54.0 °F - 3.9 °F 13% 30.30 in 10.0 mi NNW 13.8 mph 17.3 mph N/A   Clear
11:56 AM 54.0 °F - 1.9 °F 12% 30.28 in 10.0 mi Calm Calm - N/A   Clear
12:56 PM 53.1 °F - 3.9 °F 14% 30.26 in 10.0 mi East 6.9 mph - N/A   Clear
1:56 PM 55.0 °F - 3.0 °F 12% 30.25 in 10.0 mi SE 5.8 mph - N/A   Clear
2:56 PM 54.0 °F - 3.0 °F 13% 30.24 in 10.0 mi Variable 5.8 mph - N/A   Clear
3:56 PM 52.0 °F - 5.0 °F 15% 30.26 in 10.0 mi ENE 8.1 mph - N/A   Clear
4:56 PM 48.0 °F - 3.9 °F 16% 30.27 in 10.0 mi SE 6.9 mph - N/A   Clear
5:56 PM 45.0 °F - 3.0 °F 18% 30.28 in 10.0 mi Calm Calm - N/A   Clear
6:56 PM 39.0 °F 33.4 °F 3.0 °F 22% 30.31 in 10.0 mi SSW 8.1 mph - N/A   Clear
7:56 PM 37.0 °F 30.4 °F 3.0 °F 24% 30.33 in 10.0 mi South 9.2 mph - N/A   Clear
8:56 PM 32.0 °F - 3.9 °F 31% 30.35 in 10.0 mi Calm Calm - N/A   Clear
9:56 PM 30.0 °F 21.7 °F 3.9 °F 33% 30.36 in 10.0 mi SSW 9.2 mph - N/A   Clear
10:56 PM 30.0 °F 22.4 °F 3.9 °F 33% 30.39 in 10.0 mi SSW 8.1 mph - N/A   Clear
11:56 PM 30.9 °F 25.2 °F 3.9 °F 32% 30.39 in 10.0 mi SSW 5.8 mph - N/A   Clear